Overview Statistics Trail Chart Weather Telemetry Raw packets
 

This is the latest recevied weather packets stored in our database for station/object K0FJ-1. If no packets are shown the sender has not sent any weather packets the latest 10 day(s).

<< 20 21 22 23 24 25 26 >>
Time Temp. Humidity Pressure Rain* Wind** Luminosity Snow
1788540003 31.11° C 45% 1014.2 hPa 0 mm - - -
1788539703 31.11° C 44% 1014.2 hPa 0 mm - - -
1788539403 31.11° C 45% 1014.2 hPa 0 mm - - -
1788539103 30.56° C 45% 1014.3 hPa 0 mm - - -
1788538803 30.56° C 46% 1014.3 hPa 0 mm - - -
1788538503 30° C 46% 1014.2 hPa 0 mm - - -
1788538203 30° C 48% 1014.2 hPa 0 mm - - -
1788537903 30° C 48% 1014.1 hPa 0 mm - - -
1788537603 29.44° C 49% 1014 hPa 0 mm - - -
1788537303 29.44° C 49% 1013.9 hPa 0 mm - - -
1788537003 28.89° C 50% 1013.9 hPa 0 mm - - -
1788536703 28.89° C 50% 1013.8 hPa 0 mm - - -
1788536403 28.33° C 50% 1013.7 hPa 0 mm - - -
1788536103 28.33° C 51% 1013.5 hPa 0 mm - - -
1788535803 27.78° C 53% 1013.6 hPa 0 mm - - -
1788535503 27.78° C 54% 1013.6 hPa 0 mm - - -
1788535221 27.22° C 55% 1013.5 hPa 0 mm - - -
1788534903 26.67° C 56% 1013.5 hPa 0 mm - - -
1788534603 26.67° C 56% 1013.6 hPa 0 mm - - -
1788534303 26.67° C 56% 1013.5 hPa 0 mm - - -
1788534003 26.67° C 56% 1013.5 hPa 0 mm - - -
1788533703 26.67° C 56% 1013.6 hPa 0 mm - - -
1788533403 27.22° C 55% 1013.5 hPa 0 mm - - -
1788533103 27.22° C 55% 1013.4 hPa 0 mm - - -
1788532803 26.67° C 56% 1013.4 hPa 0 mm - - -

* Rain latest hour (hover to see other rain measurements)
** Current wind speed in m/s (hover to see current wind gust speed)